Location: Battery Park City
(40.7115°N, 74.0163°W)
Time: 18:17:00
(UTC+00:00)

FALCON 9 DEB - Pass Details

Date: 08 December 2019
Orbit: 431 x 443 km, 53.0° (Epoch: 25 January)

Event Time Altitude Azimuth Distance (km) Brightness Sun altitude
Rises 22:46:05 0° 221° (SW) 2,418 8.0 -14.3°
Reaches altitude 10° 22:48:13 10° 217° (SW) 1,551 6.8 -14.6°
Maximum altitude 22:51:39 59° 138° (SE) 513 3.3 -15.3°
Enters shadow 22:52:54 34° 73° (ENE) 741 3.7 -15.5°
